Date String (YYYY-MM-DD hh:mm:ss) UTC,Instrument flags,Ambient pressure (hPa),Sample flow (lpm),Bypass flow (lpm),Sample temperature (°C),Ambient temperature (°C),ASC tube jacket temperature (°C),LED temperature (°C),Box temperature (°C),Sample RH (%),Span deviation,Mass concentration (μg/m³),Mass concentration (μg/m³),Mass concentration (μg/m³)
DateTimeUTC,F1_M11,P_M11,Q1_M11,Q2_M11,T1_M11,T2_M11,T3_M11,T4_M11,T5_M11,U1_M11,ZSPAN_M11,X0_M11,X2_M11,X1_M11
2021-08-21 02:00:00,,0826.5,5.00,0.00,29.6,28.8,00.0,38.5,31.5,17.4,0002.3,0024.75,0018.31,0017.84
2021-08-21 02:01:00,,0826.5,4.99,0.00,29.6,28.9,00.0,38.6,31.5,17.1,0002.3,0024.67,0018.28,0017.81
2021-08-21 02:02:00,,0826.5,5.00,0.00,29.7,29.0,00.0,38.6,31.6,17.3,0002.4,0024.75,0018.31,0017.82
2021-08-21 02:03:00,,0826.5,5.00,0.00,29.7,29.0,00.0,38.6,31.6,17.2,0002.5,0024.74,0018.35,0017.84
2021-08-21 02:04:00,,0826.5,5.00,0.00,29.7,28.2,00.0,38.6,31.4,17.1,0002.5,0024.16,0018.37,0017.86
2021-08-21 02:05:00,,0826.5,5.01,0.00,29.6,26.5,00.0,38.6,30.9,17.1,0002.7,0024.25,0018.37,0017.88
2021-08-21 02:06:00,,0826.5,4.99,0.00,29.5,26.4,00.0,38.6,30.9,17.5,0002.7,0024.97,0018.42,0017.91
2021-08-21 02:07:00,,0826.5,5.00,0.00,29.4,26.7,00.0,38.6,31.0,18.0,0002.8,0025.08,0018.44,0017.93
2021-08-21 02:08:00,,0826.5,5.00,0.00,29.4,27.1,00.0,38.6,31.0,18.1,0002.7,0025.07,0018.43,0017.93
2021-08-21 02:09:00,,0826.5,4.99,0.00,29.4,27.5,00.0,38.5,31.1,18.0,0002.6,0025.20,0018.45,0017.92
2021-08-21 02:10:00,,0826.6,5.01,0.00,29.4,27.7,00.0,38.5,31.2,18.1,0002.5,0025.32,0018.48,0017.92
2021-08-21 02:11:00,,0826.7,4.99,0.00,29.4,28.0,00.0,38.5,31.2,17.9,0002.6,0025.45,0018.53,0017.96
2021-08-21 02:12:00,,0826.7,5.01,0.00,29.5,28.2,00.0,38.6,31.3,18.1,0002.7,0025.53,0018.58,0018.00
2021-08-21 02:13:00,,0826.7,4.99,0.00,29.5,28.4,00.0,38.6,31.4,18.4,0002.7,0025.56,0018.62,0018.01
2021-08-21 02:14:00,,0826.7,5.00,0.00,29.5,28.5,00.0,38.6,31.4,18.5,0002.8,0025.49,0018.60,0017.97
2021-08-21 02:15:00,,0826.7,5.01,0.00,29.6,28.6,00.0,38.6,31.4,18.6,0002.8,0025.53,0018.57,0017.94
2021-08-21 02:16:00,,0826.7,5.00,0.00,29.6,28.7,00.0,38.6,31.5,18.6,0002.9,0025.49,0018.54,0017.91
2021-08-21 02:17:00,,0826.8,4.99,0.00,29.7,28.8,00.0,38.6,31.6,18.6,0002.8,0024.70,0018.50,0017.86
2021-08-21 02:18:00,,0826.7,5.01,0.00,29.7,28.9,00.0,38.7,31.6,18.4,0002.8,0024.67,0018.52,0017.86
2021-08-21 02:19:00,,0826.7,5.00,0.00,29.7,29.0,00.0,38.7,31.6,18.4,0002.8,0024.26,0018.57,0017.88
2021-08-21 02:20:00,,0826.7,4.99,0.00,29.8,28.1,00.0,38.7,31.4,18.6,0002.9,0023.98,0018.59,0017.91
2021-08-21 02:21:00,,0826.7,5.01,0.00,29.6,26.5,00.0,38.7,31.0,18.9,0002.9,0023.95,0018.56,0017.89
2021-08-21 02:22:00,,0826.7,5.01,0.00,29.5,26.4,00.0,38.7,30.9,18.8,0002.7,0023.85,0018.53,0017.87
2021-08-21 02:23:00,,0826.7,4.99,0.00,29.4,26.7,00.0,38.6,31.0,18.9,0002.4,0023.89,0018.52,0017.83
2021-08-21 02:24:00,,0826.7,5.00,0.00,29.4,27.1,00.0,38.6,31.1,19.1,0002.2,0023.79,0018.43,0017.78
2021-08-21 02:25:00,,0826.8,4.99,0.00,29.4,27.4,00.0,38.6,31.1,19.2,0002.2,0023.49,0018.30,0017.67
2021-08-21 02:26:00,,0826.9,5.00,0.00,29.4,27.7,00.0,38.6,31.2,19.4,0001.9,0023.32,0018.20,0017.56
2021-08-21 02:27:00,,0827.2,5.01,0.00,29.5,28.0,00.0,38.6,31.3,19.4,0001.9,0023.30,0018.14,0017.47
2021-08-21 02:28:00,,0826.8,5.00,0.00,29.5,28.2,00.0,38.6,31.3,19.4,0001.9,0024.07,0018.07,0017.41
2021-08-21 02:29:00,,0826.9,4.99,0.00,29.5,28.3,00.0,38.6,31.4,19.4,0001.9,0024.35,0017.98,0017.33
2021-08-21 02:30:00,,0827.0,5.00,0.00,29.6,28.5,00.0,38.6,31.4,19.1,0001.8,0024.84,0017.90,0017.27
2021-08-21 02:31:00,,0827.0,5.01,0.00,29.6,28.6,00.0,38.6,31.5,19.2,0001.9,0024.74,0017.85,0017.21
2021-08-21 02:32:00,,0827.1,5.00,0.00,29.7,28.7,00.0,38.6,31.5,18.9,0002.0,0024.80,0017.88,0017.21
2021-08-21 02:33:00,,0827.2,5.00,0.00,29.7,28.8,00.0,38.7,31.6,18.7,0002.0,0024.77,0017.82,0017.15
2021-08-21 02:34:00,,0827.1,5.00,0.00,29.7,28.8,00.0,38.7,31.6,18.6,0002.0,0024.65,0017.76,0017.12
2021-08-21 02:35:00,,0827.0,5.02,0.00,29.8,28.9,00.0,38.7,31.6,18.7,0002.2,0024.84,0017.69,0017.03
2021-08-21 02:36:00,,0827.0,4.99,0.00,29.8,28.1,00.0,38.7,31.4,18.9,0002.3,0025.18,0017.65,0016.97
2021-08-21 02:37:00,,0827.1,5.00,0.00,29.6,26.4,00.0,38.7,30.9,18.9,0002.4,0025.91,0017.53,0016.88
2021-08-21 02:38:00,,0827.0,5.01,0.00,29.5,26.3,00.0,38.7,30.9,18.9,0002.4,0025.66,0017.38,0016.74
2021-08-21 02:39:00,,0827.0,5.00,0.00,29.4,26.6,00.0,38.6,30.9,19.1,0002.4,0024.80,0017.24,0016.60
2021-08-21 02:40:00,,0827.0,5.00,0.00,29.4,27.0,00.0,38.6,31.0,19.2,0002.5,0024.21,0017.09,0016.44
2021-08-21 02:41:00,,0827.1,5.00,0.00,29.4,27.4,00.0,38.6,31.1,19.2,0002.6,0023.35,0016.92,0016.28
2021-08-21 02:42:00,,0827.1,5.00,0.00,29.4,27.7,00.0,38.6,31.2,19.3,0002.7,0023.06,0016.72,0016.10
2021-08-21 02:43:00,,0827.5,4.99,0.00,29.5,27.9,00.0,38.6,31.2,19.3,0002.7,0022.73,0016.49,0015.91
2021-08-21 02:44:00,,0827.3,5.01,0.00,29.5,28.2,00.0,38.6,31.3,19.1,0002.9,0022.47,0016.28,0015.72
2021-08-21 02:45:00,,0827.5,4.99,0.00,29.5,28.3,00.0,38.6,31.3,19.0,0003.1,0022.35,0016.07,0015.51
2021-08-21 02:46:00,,0827.3,5.01,0.00,29.6,28.5,00.0,38.6,31.4,19.1,0003.0,0022.20,0015.88,0015.34
2021-08-21 02:47:00,,0827.3,4.98,0.00,29.6,28.6,00.0,38.6,31.4,19.1,0003.0,0022.02,0015.80,0015.27
2021-08-21 02:48:00,,0827.1,5.01,0.00,29.6,28.7,00.0,38.6,31.5,19.1,0002.9,0021.53,0015.76,0015.21
2021-08-21 02:49:00,,0827.1,5.00,0.00,29.7,28.8,00.0,38.7,31.5,19.1,0002.9,0021.86,0015.73,0015.17
2021-08-21 02:50:00,,0827.1,4.99,0.00,29.7,28.9,00.0,38.7,31.6,19.0,0002.7,0021.91,0015.71,0015.13
2021-08-21 02:51:00,,0827.2,5.01,0.00,29.7,28.9,00.0,38.7,31.6,18.9,0002.5,0022.14,0015.64,0015.08
2021-08-21 02:52:00,,0827.2,4.99,0.00,29.8,28.9,00.0,38.7,31.6,18.8,0002.4,0022.40,0015.55,0014.99
2021-08-21 02:53:00,,0827.2,5.00,0.00,29.7,27.2,00.0,38.7,31.2,18.9,0002.1,0022.81,0015.47,0014.89
2021-08-21 02:54:00,,0827.1,5.01,0.00,29.6,26.3,00.0,38.7,30.9,18.9,0002.1,0023.07,0015.41,0014.78
2021-08-21 02:55:00,,0827.2,5.00,0.00,29.5,26.5,00.0,38.7,30.9,19.0,0002.1,0023.15,0015.34,0014.69
2021-08-21 02:56:00,,0827.2,5.00,0.00,29.4,26.9,00.0,38.7,31.0,19.1,0002.0,0022.93,0015.26,0014.62
2021-08-21 02:57:00,,0827.2,5.01,0.00,29.4,27.2,00.0,38.6,31.1,19.2,0002.2,0022.59,0015.21,0014.55
2021-08-21 02:58:00,,0827.2,4.99,0.00,29.4,27.6,00.0,38.6,31.2,19.2,0002.3,0022.13,0015.14,0014.46
2021-08-21 02:59:00,,0827.2,5.01,0.00,29.5,27.8,00.0,38.6,31.2,19.2,0002.3,0021.71,0015.09,0014.39
